Weather reports worldwide

Advertisment
Cozzo Spadaro, Italy (16480): temperature & dewpoint: 17.10.2020 02:00:00 - 23.10.2020 02:00:00 (CEST)Cozzo Spadaro, Italy (16480): wind speed & gusts: 17.10.2020 02:00:00 - 23.10.2020 02:00:00 (CEST)Cozzo Spadaro, Italy (16480): wind direction: 17.10.2020 02:00:00 - 23.10.2020 02:00:00 (CEST)Cozzo Spadaro, Italy (16480): reduced air pressure: 17.10.2020 02:00:00 - 23.10.2020 02:00:00 (CEST)Cozzo Spadaro, Italy (16480): visibility: 17.10.2020 02:00:00 - 23.10.2020 02:00:00 (CEST)Cozzo Spadaro, Italy (16480): sunshine duration: 17.10.2020 02:00:00 - 23.10.2020 02:00:00 (CEST)
Date & Time tt [°C] td [°C] ff [km/h] ff [kn] fx [km/h] fx [kn] dd ppp [hPa] vv [km] sd [min]
23.10.2020 02:00:00 - - - - - - - - - -
23.10.2020 01:00:00 - - - - - - - - - -
23.10.2020 00:00:00 - - - - - - - - - -
22.10.2020 23:00:00 - - - - - - - - - -
22.10.2020 22:00:00 - - - - - - - - - -
22.10.2020 21:00:00 - - - - - - - - - -
22.10.2020 20:00:00 18,8 14,3 4 2 - - W 1023,1 20 -
22.10.2020 19:00:00 19,8 14,4 4 2 - - WSW 1023,0 25 0
22.10.2020 18:00:00 20,8 12,8 4 2 - - N 1023,0 25 42
22.10.2020 17:00:00 22,0 12,8 8 4 - - SSW 1022,8 25 60
22.10.2020 16:00:00 22,2 12,5 8 4 - - S 1022,8 25 60
22.10.2020 15:00:00 22,7 12,0 8 4 - - SSW 1023,1 25 60
22.10.2020 14:00:00 23,2 11,6 9 5 - - S 1023,7 25 60
22.10.2020 13:00:00 23,0 12,9 8 4 - - SE 1024,1 25 60
22.10.2020 12:00:00 22,4 12,9 4 2 - - N 1024,1 25 60
22.10.2020 11:00:00 22,8 14,1 8 4 - - NE 1024,1 25 60
22.10.2020 10:00:00 21,8 14,9 8 4 - - NNW 1024,0 25 60
22.10.2020 09:00:00 18,8 14,3 8 4 - - NNW 1023,9 25 18
22.10.2020 08:00:00 17,0 14,5 8 4 - - NNW 1023,2 25 0
22.10.2020 07:00:00 - - - - - - - - - -
22.10.2020 06:00:00 - - - - - - - - - -
22.10.2020 05:00:00 - - - - - - - - - -
22.10.2020 04:00:00 - - - - - - - - - -
22.10.2020 03:00:00 - - - - - - - - - -
22.10.2020 02:00:00 - - - - - - - - - -
22.10.2020 01:00:00 - - - - - - - - - -
22.10.2020 00:00:00 - - - - - - - - - -
21.10.2020 23:00:00 - - - - - - - - - -
21.10.2020 22:00:00 - - - - - - - - - -
21.10.2020 21:00:00 - - - - - - - - - -
21.10.2020 20:00:00 19,4 12,9 4 2 - - ESE 1023,0 25 -
21.10.2020 19:00:00 19,8 13,0 5 3 - - SE 1022,6 25 0
21.10.2020 18:00:00 20,6 13,1 8 4 - - SE 1022,5 25 42
21.10.2020 17:00:00 22,2 14,6 8 4 - - SE 1022,5 25 60
21.10.2020 16:00:00 22,8 15,9 9 5 - - SE 1022,9 25 60
21.10.2020 15:00:00 23,0 16,5 11 6 - - SE 1023,0 25 60
21.10.2020 14:00:00 23,0 17,2 9 5 - - ESE 1023,7 25 60
21.10.2020 13:00:00 22,6 17,5 8 4 - - E 1023,9 25 60
21.10.2020 12:00:00 22,4 17,5 11 6 - - E 1023,9 25 60
21.10.2020 11:00:00 22,0 17,8 11 6 - - E 1023,8 25 60
21.10.2020 10:00:00 20,8 17,0 8 4 - - NNE 1023,5 25 60
21.10.2020 09:00:00 18,4 15,7 5 3 - - N 1023,1 25 30
21.10.2020 08:00:00 15,8 13,3 8 4 - - NNE 1023,0 25 0
21.10.2020 07:00:00 - - - - - - - - - -
21.10.2020 06:00:00 - - - - - - - - - -
21.10.2020 05:00:00 - - - - - - - - - -
21.10.2020 04:00:00 - - - - - - - - - -
21.10.2020 03:00:00 - - - - - - - - - -
21.10.2020 02:00:00 - - - - - - - - - -
21.10.2020 01:00:00 - - - - - - - - - -
21.10.2020 00:00:00 - - - - - - - - - -
20.10.2020 23:00:00 - - - - - - - - - -
20.10.2020 22:00:00 - - - - - - - - - -
20.10.2020 21:00:00 - - - - - - - - - -
20.10.2020 20:00:00 19,0 15,1 4 2 - - N 1023,1 20 -
20.10.2020 19:00:00 20,0 15,9 4 2 - - ESE 1022,9 20 -
20.10.2020 18:00:00 20,2 15,6 4 2 - - N 1023,0 25 30
20.10.2020 17:00:00 21,4 15,7 4 2 - - N 1023,1 25 48
20.10.2020 16:00:00 21,8 15,9 8 4 - - ESE 1023,0 25 60
20.10.2020 15:00:00 22,8 16,1 11 6 - - E 1023,0 25 60
20.10.2020 14:00:00 22,6 15,7 13 7 - - E 1023,4 25 60
20.10.2020 13:00:00 22,4 15,7 11 6 - - E 1023,8 25 60
20.10.2020 12:00:00 21,8 15,2 11 6 - - ENE 1023,8 25 60
20.10.2020 11:00:00 21,4 16,6 11 6 - - NE 1023,7 25 60
20.10.2020 10:00:00 20,4 15,8 8 4 17 9 NE 1023,1 25 36
20.10.2020 09:00:00 18,6 16,6 9 5 - - N 1023,1 25 0
20.10.2020 08:00:00 16,0 14,2 8 4 - - N 1022,7 25 0
20.10.2020 07:00:00 - - - - - - - - - -
20.10.2020 06:00:00 - - - - - - - - - -
20.10.2020 05:00:00 - - - - - - - - - -
20.10.2020 04:00:00 - - - - - - - - - -
20.10.2020 03:00:00 - - - - - - - - - -
20.10.2020 02:00:00 - - - - - - - - - -
20.10.2020 01:00:00 - - - - - - - - - -
20.10.2020 00:00:00 - - - - - - - - - -
19.10.2020 23:00:00 - - - - - - - - - -
19.10.2020 22:00:00 - - - - - - - - - -
19.10.2020 21:00:00 - - - - - - - - - -
19.10.2020 20:00:00 19,0 17,0 15 8 - - NNE 1022,0 20 -
19.10.2020 19:00:00 15,0 10,8 18 10 31 17 NNE 1021,2 20 -
19.10.2020 18:00:00 21,0 15,8 13 7 - - E 1021,0 25 0
19.10.2020 17:00:00 22,2 16,2 11 6 - - E 1021,0 25 12
19.10.2020 16:00:00 21,4 15,7 13 7 - - E 1021,1 25 60
19.10.2020 15:00:00 22,0 15,8 15 8 - - ENE 1021,2 25 60
19.10.2020 14:00:00 23,2 17,2 16 9 - - ENE 1021,4 25 60
19.10.2020 13:00:00 22,8 16,6 15 8 - - ENE 1021,8 25 60
19.10.2020 12:00:00 22,6 16,2 16 9 - - NE 1021,8 25 60
19.10.2020 11:00:00 22,2 15,8 15 8 - - NE 1021,8 25 60
19.10.2020 10:00:00 21,0 15,1 18 10 - - NNE 1020,6 25 36
19.10.2020 09:00:00 20,2 15,6 18 10 27 15 NNE 1020,1 25 0
19.10.2020 08:00:00 16,6 14,4 11 6 - - N 1019,3 25 0
19.10.2020 07:00:00 - - - - - - - - - -
19.10.2020 06:00:00 - - - - - - - - - -
19.10.2020 05:00:00 - - - - - - - - - -
19.10.2020 04:00:00 - - - - - - - - - -
19.10.2020 03:00:00 - - - - - - - - - -
19.10.2020 02:00:00 - - - - - - - - - -
19.10.2020 01:00:00 - - - - - - - - - -
19.10.2020 00:00:00 - - - - - - - - - -
18.10.2020 23:00:00 - - - - - - - - - -
18.10.2020 22:00:00 - - - - - - - - - -
18.10.2020 21:00:00 - - - - - - - - - -
18.10.2020 20:00:00 19,8 13,5 8 4 - - ESE 1017,9 25 -
18.10.2020 19:00:00 19,8 13,3 9 5 - - ESE 1017,5 25 -
18.10.2020 18:00:00 20,0 15,0 0 0 - - N 1017,4 25 18
18.10.2020 17:00:00 20,8 11,7 8 4 - - SE 1017,3 25 42
18.10.2020 16:00:00 21,2 10,4 5 3 - - SSE 1017,3 25 60
18.10.2020 15:00:00 22,8 10,9 8 4 - - SSW 1017,3 25 60
18.10.2020 14:00:00 22,4 12,1 4 2 - - SW 1017,5 25 60
18.10.2020 13:00:00 22,8 12,4 8 4 - - SE 1017,5 25 60
18.10.2020 12:00:00 22,2 13,0 8 4 - - ENE 1017,5 25 60
18.10.2020 11:00:00 22,0 14,1 5 3 - - ENE 1017,4 25 60
18.10.2020 10:00:00 21,0 16,0 4 2 - - NE 1017,0 25 30
18.10.2020 09:00:00 18,4 12,4 4 2 - - NNE 1016,3 25 0
18.10.2020 08:00:00 15,6 12,2 13 7 - - NNE 1016,1 25 0
18.10.2020 07:00:00 - - - - - - - - - -
18.10.2020 06:00:00 - - - - - - - - - -
18.10.2020 05:00:00 - - - - - - - - - -
18.10.2020 04:00:00 - - - - - - - - - -
18.10.2020 03:00:00 - - - - - - - - - -
18.10.2020 02:00:00 - - - - - - - - - -
18.10.2020 01:00:00 - - - - - - - - - -
18.10.2020 00:00:00 - - - - - - - - - -
17.10.2020 23:00:00 - - - - - - - - - -
17.10.2020 22:00:00 - - - - - - - - - -
17.10.2020 21:00:00 - - - - - - - - - -
17.10.2020 20:00:00 18,2 11,0 8 4 - - NW 1015,1 25 -
17.10.2020 19:00:00 19,2 10,5 13 7 - - WNW 1014,6 25 0
17.10.2020 18:00:00 20,6 11,8 15 8 - - W 1014,5 25 60
17.10.2020 17:00:00 21,4 13,6 16 9 - - W 1014,9 25 60
17.10.2020 16:00:00 22,0 12,0 16 9 - - W 1015,0 25 60
17.10.2020 15:00:00 22,4 10,5 11 6 - - W 1015,0 25 60
17.10.2020 14:00:00 22,2 12,7 11 6 - - SW 1015,9 25 60
17.10.2020 13:00:00 21,8 14,0 11 6 - - SW 1015,9 25 60
17.10.2020 12:00:00 22,2 14,8 5 3 - - SE 1015,7 25 60
17.10.2020 11:00:00 21,6 14,7 5 3 - - NE 1015,0 25 60
17.10.2020 10:00:00 20,8 14,0 9 5 - - NNE 1014,7 25 60
17.10.2020 09:00:00 17,4 11,0 5 3 - - N 1014,1 25 36
17.10.2020 08:00:00 16,8 11,7 5 3 - - N 1013,9 25 0
17.10.2020 07:00:00 - - - - - - - - - -
17.10.2020 06:00:00 - - - - - - - - - -
17.10.2020 05:00:00 - - - - - - - - - -
17.10.2020 04:00:00 - - - - - - - - - -
17.10.2020 03:00:00 - - - - - - - - - -
17.10.2020 02:00:00 - - - - - - - - - -

tt = temperature
td = dewpoint
ff = wind speed
fx = gusts
dd = wind direction
ppp = reduced air pressure
vv = visibility
sd = sunshine duration

Next stations